STARLINK-2567, 48276

Orbit data source: Space-Track

STARLINK-2567, 48276 is a payload satellite owned by SpaceX/Seattle (US) in LEO that was launched on Thu, 29 Apr 2021 UTC via an FALCON 9 launch vehicle from the Air Force Eastern Test Range (AFETR). Payloads include a variety of satellites, spacecraft, and rockets equipped with specific instruments for various scientific and technological missions. These include communications satellites like Starlink; space stations such as the ISS; scientific satellites like the Hubble; Earth observation satellites from companies like Planet Labs, Umbra, and HawkEye 360; GPS; miniature CubeSats for education and research; and military/defense satellites.

Loading next visibility...
STARLINK-2567 details
Identifier
48276, 2021-036A
Orbit
LEO
Last TLE update1 day ago
Origin
Flag of USSpaceX/Seattle (US)
ManufacturerSpaceX/Seattle
MissionOperational Commercial Communications
Bus & MotorSTARLINK, Unknown motor
Mass260 kg wet, ~248 kg dry
Launch date (UTC)
2021-04-29 (4 years ago)
Launch vehicle
FALCON 9
Launch site
Air Force Eastern Test Range (AFETR)
Object type
Payload
Rocket body
Debris
Shape & HBRBox + 1 Pan, 8.86 m
Radar Cross Section13.562 m², Large (>1 m²)

Expand to show TLE details & history

TLE from 1 day ago
0 STARLINK-2567
1 48276U 21036A   25035.39314403 -.00002516  00000-0 -15016-3 0  9993
2 48276  53.0554  34.6398 0001090  75.3406 284.7703 15.06376952208778
Epoch: 2025-02-04T09:26Z
Definitive object data (Epoch: 2025-02-04T09:26:07.644Z)
Latitude-0.00007°
Longitude118.30882°
Altitude547.969 km
Speed7.589 km/s
True Right ascension02h 18m 33s
True Declination0° 00' 00"
Sunlit
Object was in daylight at TLE epoch
Visualization TLE readout
Latitude-52.20628°
Longitude8.00183°
Altitude566.171 km
Speed7.577 km/s
Apparent Right ascension22h 53m 44s
Apparent Declination-60° 15' 45"
Sunlit
Object is in daylight
Visualization observer readout
Local Sidereal Time14:07:01
Azimuth140.806° SSE
Elevation-54.11°
Doppler factor1
Orbital elements
Apogee altitude548.308 km
Perigee altitude546.798 km
Semi-major axis6,925.69 km
Eccentricity0.000109
Inclination53.0554°
RAAN34.6398°
Arg. of periapsis75.3406°
True anomaly284.75822°
Mean anomaly284.7703°
Eccentric anomaly284.76426°
Mean motion3.76573 °/min
BSTAR-0.00015016
Orbital period95.6 mins
Loading maneuver chart data...
Loading historical data...
Loading historical data...
Loading historical data...
Loading historical data...
Loading historical data...
Loading historical data...
Loading historical data...

STARLINK-2567 Visibility forecast

Observer location: undefined°, undefined

Span
Click to sort rows by Start time (UTC) header in descending order
Start Az.
Max El. time (UTC)
Max El. Az.
Max El.
End time (UTC)
End Az.
6 mins2025-02-06 01:23:55.148Z189.493° SSW2025-02-06 01:26:55.148Z130.688° SE27.614°2025-02-06 01:29:55.148Z72.946° E
6 mins2025-02-06 03:03:55.148Z268.888° W2025-02-06 03:05:55.148Z312.182° NW31.401°2025-02-06 03:09:55.148Z36.85° NE
6 mins2025-02-06 08:05:55.148Z335.519° NNW2025-02-06 08:07:55.148Z21.612° NNE30.456°2025-02-06 08:11:55.148Z98.946° ESE
5 mins2025-02-06 09:45:55.148Z274.006° WNW2025-02-06 09:47:55.148Z219.517° SW29.308°2025-02-06 09:50:55.148Z165.368° S
|